1488423600.49,64390,7.19,72418.3,-11.21,-37.51,-37.69,0,*60
1488423601.76,64391,7.19,72424.8,-11.21,-37.69,-37.87,0,*6A
1488423603.03,64392,7.19,72422.0,-11.21,-37.87,-37.99,0,*66
1488423604.28,64393,7.19,72418.3,-11.19,-37.81,-37.87,0,*65
1488423605.55,64394,7.19,72416.3,-11.21,-37.69,-37.87,0,*6F
1488423606.83,64395,7.19,72416.0,-11.19,-37.81,-37.99,0,*6C
1488423608.1,64396,7.19,72420.0,-11.21,-37.87,-37.99,0,*62
1488423609.37,64397,7.25,72430.0,-11.19,-37.69,-37.81,0,*61
1488423610.65,64398,7.19,72424.3,-11.19,-37.81,-37.99,0,*61
1488423611.93,64399,7.19,72418.8,-11.19,-37.81,-37.99,0,*60
1488423613.2,64400,7.19,72420.0,-11.21,-37.87,-37.99,0,*6A
1488423614.5,64401,7.19,72420.8,-11.21,-37.99,-37.99,0,*64
1488423615.77,64402,7.19,72412.0,-11.21,-37.69,-37.87,0,*67
1488423617.05,64403,7.25,72418.3,-11.21,-37.63,-37.69,0,*6C
1488423618.35,64404,7.19,72420.0,-11.21,-37.63,-37.81,0,*6D
1488423619.6,64405,7.25,72424.5,-11.19,-37.81,-37.87,0,*6D
1488423620.9,64406,7.19,72414.5,-11.21,-37.81,-37.99,0,*6A
1488423622.17,64407,7.19,72408.5,-11.21,-37.69,-37.87,0,*62
1488423623.47,64408,7.25,72416.5,-11.21,-37.81,-37.81,0,*6D
1488423624.76,64409,7.19,72414.8,-11.21,-37.99,-37.99,0,*6C
1488423626.02,64410,7.19,72416.8,-11.19,-37.87,-37.99,0,*60
1488423627.25,64411,7.19,72420.3,-11.19,-37.99,-38.05,0,*64
1488423628.46,64412,7.25,72422.0,-11.19,-38.05,-38.05,0,*6D
1488423629.71,64413,7.19,72424.0,-11.19,-37.99,-38.17,0,*65
1488423630.94,64414,7.25,72420.0,-11.21,-38.17,-38.17,0,*60
1488423632.18,64415,7.19,72414.8,-11.21,-38.05,-38.05,0,*61
1488423633.44,64416,7.19,72412.3,-11.21,-37.99,-38.05,0,*68
1488423634.71,64417,7.19,72420.3,-11.19,-37.99,-37.99,0,*68
1488423635.96,64418,7.19,72406.0,-11.21,-37.87,-37.87,0,*6C
1488423637.24,64419,7.19,72404.8,-11.21,-37.87,-37.99,0,*62
1488423638.5,64420,7.19,72402.0,-11.21,-37.69,-37.87,0,*67
1488423639.8,64421,7.25,72414.3,-11.21,-37.99,-37.99,0,*66
1488423641.07,64422,7.19,72410.3,-11.21,-37.99,-37.87,0,*6A
1488423642.36,64423,7.19,72412.0,-11.21,-37.99,-37.99,0,*64
1488423643.66,64424,7.19,72408.0,-11.21,-37.99,-37.99,0,*63
1488423644.93,64425,7.19,72410.3,-11.19,-37.99,-37.99,0,*69
1488423646.2,64426,7.19,72412.3,-11.21,-38.05,-37.99,0,*6B
1488423647.47,64427,7.19,72418.8,-11.21,-37.87,-37.81,0,*66
1488423648.72,64428,7.25,72416.5,-11.19,-37.87,-37.99,0,*6B
1488423650.02,64429,7.19,72422.3,-11.21,-37.99,-37.99,0,*6E
1488423651.23,64430,7.19,72420.8,-11.19,-38.05,-38.05,0,*6D
1488423652.46,64431,7.25,72424.5,-11.21,-38.05,-38.05,0,*67
1488423653.7,64432,7.19,72422.8,-11.19,-37.99,-38.05,0,*65
1488423654.95,64433,7.19,72422.0,-11.19,-37.87,-37.99,0,*61
1488423656.25,64434,7.25,72428.3,-11.21,-37.81,-37.81,0,*62
1488423657.55,64435,7.19,72420.5,-11.21,-37.99,-37.99,0,*63
1488423658.82,64436,7.25,72424.3,-11.23,-37.99,-37.99,0,*62
1488423660.09,64437,7.19,72414.0,-11.23,-37.99,-37.99,0,*63
1488423661.34,64438,7.25,72418.5,-11.23,-37.87,-37.99,0,*63
1488423662.59,64439,7.19,72414.3,-11.23,-37.87,-37.99,0,*62
1488423663.84,64440,7.19,72418.0,-11.23,-37.87,-37.93,0,*66
1488423665.09,64441,7.19,72412.3,-11.23,-37.81,-37.87,0,*64
1488423666.34,64442,7.19,72428.8,-11.23,-37.81,-37.87,0,*67
1488423667.62,64443,7.19,72430.5,-11.23,-37.81,-37.99,0,*69
1488423668.88,64444,7.19,72432.8,-11.25,-38.05,-38.11,0,*64
1488423670.12,64445,7.25,72422.5,-11.25,-37.57,-37.75,0,*60
1488423671.39,64446,7.19,72406.0,-11.23,-37.51,-37.69,0,*6E
1488423672.6,64447,7.19,72420.3,-11.23,-37.33,-37.33,0,*64
1488423673.87,64448,7.19,72410.0,-11.21,-37.45,-37.63,0,*6D
1488423675.16,64449,7.19,72414.5,-11.21,-37.51,-37.63,0,*69
1488423676.46,64450,7.25,72404.5,-11.21,-37.63,-37.63,0,*60
1488423677.74,64451,7.19,72406.5,-11.21,-37.69,-37.69,0,*61
1488423679.03,64452,7.25,72416.5,-11.21,-37.63,-37.69,0,*68
1488423680.32,64453,7.25,72420.5,-11.21,-37.51,-37.69,0,*68
1488423681.6,64454,7.19,72416.5,-11.21,-37.63,-37.69,0,*6E
1488423682.87,64455,7.25,72418.8,-11.19,-37.63,-37.81,0,*62
1488423684.14,64456,7.25,72420.8,-11.19,-37.69,-37.81,0,*6B
1488423685.41,64457,7.19,72406.5,-11.19,-37.51,-37.69,0,*67
1488423686.68,64458,7.19,72422.0,-11.19,-37.51,-37.63,0,*62
1488423687.95,64459,7.19,72410.3,-11.19,-37.51,-37.63,0,*63
1488423689.19,64460,7.19,72414.8,-11.19,-37.15,-37.09,0,*65
1488423690.43,64461,7.19,72404.5,-11.21,-37.15,-37.27,0,*63
1488423691.64,64462,7.19,72410.0,-11.19,-37.33,-37.27,0,*6F
1488423692.85,64463,7.19,72406.3,-11.19,-37.45,-37.45,0,*6B
1488423694.12,64464,7.19,72412.5,-11.17,-37.39,-37.57,0,*6A
1488423695.38,64465,7.19,72396.0,-11.19,-37.51,-37.51,0,*6D
1488423696.63,64466,7.25,72410.8,-11.19,-37.45,-37.63,0,*6A
1488423697.84,64467,7.19,72410.0,-11.19,-37.27,-37.27,0,*6F
1488423699.11,64468,7.19,72408.8,-11.17,-37.57,-37.63,0,*69
1488423700.38,64469,7.25,72406.8,-11.17,-37.45,-37.63,0,*6B
1488423701.62,64470,7.25,72418.5,-11.15,-37.51,-37.57,0,*63
1488423702.89,64471,7.19,72412.3,-11.17,-37.45,-37.63,0,*62
1488423704.16,64472,7.25,72402.3,-11.17,-37.45,-37.63,0,*61
1488423705.39,64473,7.19,72402.3,-11.17,-37.45,-37.45,0,*64
1488423706.63,64474,7.19,72404.8,-11.17,-37.45,-37.57,0,*60
1488423707.87,64475,7.19,72404.5,-11.17,-37.45,-37.57,0,*61
1488423709.1,64476,7.19,72410.0,-11.17,-37.45,-37.57,0,*62
1488423710.34,64477,7.25,72410.3,-11.17,-37.45,-37.57,0,*63
1488423711.64,64478,7.19,72416.8,-11.17,-37.63,-37.63,0,*6F
1488423712.91,64479,7.25,72416.5,-11.17,-37.45,-37.63,0,*6A
1488423714.14,64480,7.19,72406.8,-11.17,-37.57,-37.57,0,*68
1488423715.41,64481,7.19,72416.5,-11.17,-37.57,-37.63,0,*6E
1488423716.65,64482,7.19,72408.5,-11.17,-37.57,-37.75,0,*6A
1488423717.94,64483,7.19,72404.3,-11.17,-37.63,-37.81,0,*67
1488423719.18,64484,7.19,72410.5,-11.17,-37.45,-37.27,0,*68
1488423720.39,64485,7.19,72418.0,-11.15,-37.03,-37.15,0,*68
1488423721.64,64486,7.25,72408.8,-11.15,-36.97,-36.91,0,*6A
1488423722.87,64487,7.19,72404.8,-11.15,-37.33,-37.39,0,*67
1488423724.14,64488,7.19,72412.0,-11.15,-37.39,-37.51,0,*6C
1488423725.37,64489,7.19,72414.0,-11.17,-37.45,-37.45,0,*61
1488423726.64,64490,7.19,72414.8,-11.15,-37.39,-37.39,0,*6B
1488423727.86,64491,7.19,72416.5,-11.15,-37.03,-37.15,0,*6D
1488423729.07,64492,7.19,72416.0,-11.15,-36.73,-36.73,0,*69
1488423730.32,64493,7.19,72418.3,-11.17,-36.85,-36.97,0,*69
1488423731.55,64494,7.25,72412.5,-11.15,-36.91,-36.97,0,*69
1488423732.77,64495,7.25,72416.0,-11.15,-37.15,-37.03,0,*69
1488423734.03,64496,7.19,72418.8,-11.13,-37.15,-37.21,0,*6C
1488423735.27,64497,7.25,72412.0,-11.11,-37.33,-37.51,0,*6C
1488423736.53,64498,7.19,72412.8,-11.13,-37.57,-37.69,0,*68
1488423737.8,64499,7.19,72412.5,-11.13,-37.69,-37.87,0,*64
1488423739.04,64500,7.19,72408.3,-11.13,-37.75,-37.87,0,*68
1488423740.31,64501,7.25,72404.5,-11.13,-37.87,-37.93,0,*61
1488423741.58,64502,7.25,72396.8,-11.13,-37.69,-37.75,0,*6A
1488423742.82,64503,7.19,72390.0,-11.13,-37.75,-37.87,0,*6B
1488423744.09,64504,7.25,72396.8,-11.13,-37.69,-37.75,0,*6C
1488423745.35,64505,7.19,72392.3,-11.13,-37.69,-37.75,0,*6D
1488423746.6,64506,7.19,72396.0,-11.13,-37.87,-37.87,0,*63
1488423747.81,64507,7.19,72398.5,-11.15,-37.75,-37.87,0,*69
1488423749.05,64508,7.25,72406.3,-11.15,-37.75,-37.69,0,*66
1488423750.29,64509,7.19,72408.8,-11.15,-37.69,-37.75,0,*67
1488423751.53,64510,7.25,72420.0,-11.13,-37.75,-37.75,0,*64
1488423752.79,64511,7.25,72422.8,-11.13,-37.69,-37.75,0,*68
1488423754.06,64512,7.25,72424.8,-11.13,-37.51,-37.57,0,*60
1488423755.29,64513,7.25,72422.3,-11.15,-37.69,-37.75,0,*6C
1488423756.53,64514,7.25,72418.3,-11.15,-37.69,-37.57,0,*6B
1488423757.77,64515,7.25,72426.8,-11.15,-37.57,-37.69,0,*6A
1488423759.01,64516,7.25,72426.0,-11.17,-37.57,-37.75,0,*66
1488423760.24,64517,7.25,72422.0,-11.15,-37.69,-37.75,0,*68
1488423761.49,64518,7.19,72412.5,-11.13,-37.87,-37.87,0,*6C
1488423762.72,64519,7.25,72420.8,-11.15,-37.87,-37.87,0,*6B
1488423763.93,64520,7.19,72424.3,-11.15,-37.57,-37.57,0,*61
1488423765.2,64521,7.25,72430.0,-11.15,-37.21,-37.21,0,*60
1488423766.47,64522,7.25,72434.8,-11.15,-37.21,-37.39,0,*6A
1488423767.76,64523,7.19,72424.8,-11.13,-37.51,-37.69,0,*6F
1488423769.0,64524,7.19,72426.5,-11.13,-37.75,-37.75,0,*63
1488423770.28,64525,7.19,72426.5,-11.13,-37.39,-37.69,0,*67
1488423771.49,64526,7.25,72412.5,-11.15,-37.33,-37.33,0,*67
1488423772.76,64527,7.25,72416.8,-11.15,-37.21,-37.21,0,*66
1488423774.03,64528,7.19,72414.3,-11.13,-37.21,-37.33,0,*6C
1488423775.27,64529,7.25,72430.0,-11.11,-37.45,-37.51,0,*69
1488423776.53,64530,7.25,72414.0,-11.13,-37.39,-37.33,0,*6C
1488423777.8,64531,7.25,72412.8,-11.13,-36.61,-36.73,0,*64
1488423779.04,64532,7.19,72404.3,-11.11,-36.97,-36.91,0,*60
1488423780.26,64533,7.19,72416.0,-11.11,-36.67,-36.67,0,*67
1488423781.49,64534,7.19,72408.3,-11.11,-36.91,-36.97,0,*66
1488423782.7,64535,7.19,72418.8,-11.11,-37.15,-36.97,0,*6A
1488423783.91,64536,7.19,72416.0,-11.11,-37.27,-37.27,0,*62
1488423785.16,64537,7.19,72422.0,-11.11,-37.45,-37.63,0,*67
1488423786.45,64538,7.25,72426.8,-11.09,-37.51,-37.63,0,*64
1488423787.68,64539,7.19,72418.8,-11.11,-37.45,-37.51,0,*68
1488423788.94,64540,7.19,72420.0,-11.11,-37.69,-37.69,0,*63
1488423790.21,64541,7.25,72424.3,-11.11,-37.63,-37.81,0,*6E
1488423791.48,64542,7.25,72430.0,-11.11,-37.81,-37.81,0,*61
1488423792.75,64543,7.19,72426.5,-11.11,-37.81,-37.81,0,*60
1488423794.02,64544,7.19,72420.5,-11.11,-37.69,-37.81,0,*61
1488423795.29,64545,7.19,72418.8,-11.11,-37.69,-37.81,0,*60
1488423796.55,64546,7.19,72418.8,-11.11,-37.63,-37.69,0,*6F
1488423797.83,64547,7.19,72424.0,-11.09,-37.63,-37.69,0,*67
1488423799.12,64548,7.19,72420.8,-11.09,-37.81,-37.81,0,*62
1488423800.41,64549,7.25,72422.8,-11.09,-37.81,-37.81,0,*63
1488423801.69,64550,7.25,72410.3,-11.11,-37.81,-37.81,0,*62
1488423802.94,64551,7.19,72406.0,-11.11,-37.63,-37.69,0,*69
1488423804.15,64552,7.25,72420.3,-11.11,-37.45,-37.45,0,*60
1488423805.41,64553,7.19,72414.0,-11.11,-37.63,-37.69,0,*6B
1488423806.67,64554,7.19,72420.8,-11.11,-37.51,-37.69,0,*6D
1488423807.94,64555,7.25,72420.5,-11.11,-37.63,-37.63,0,*67
1488423809.22,64556,7.19,72406.8,-11.09,-37.63,-37.69,0,*67
1488423810.46,64557,7.19,72412.8,-11.13,-37.75,-37.87,0,*6A
1488423811.72,64558,7.19,72406.8,-11.11,-37.69,-37.69,0,*6A
1488423812.98,64559,7.19,72416.8,-11.11,-37.69,-37.81,0,*6D
1488423814.25,64560,7.25,72410.5,-11.11,-37.51,-37.63,0,*60
1488423815.48,64561,7.19,72404.0,-11.11,-37.57,-37.69,0,*6D
1488423816.69,64562,7.25,72392.3,-11.11,-37.45,-37.45,0,*63
1488423817.9,64563,7.19,72410.0,-11.11,-37.33,-37.45,0,*63
1488423819.13,64564,7.19,72406.5,-11.11,-36.97,-36.91,0,*63
1488423820.34,64565,7.19,72404.0,-11.11,-37.45,-37.45,0,*64
1488423821.61,64566,7.19,72414.8,-11.13,-37.51,-37.57,0,*63
1488423822.81,64567,7.25,72412.3,-11.11,-37.33,-37.45,0,*67
1488423824.02,64568,7.25,72408.5,-11.11,-37.27,-37.27,0,*69
1488423825.28,64569,7.25,72414.8,-11.09,-37.09,-36.97,0,*67
1488423826.54,64570,7.25,72418.5,-11.09,-36.97,-37.09,0,*6F
1488423827.8,64571,7.25,72422.8,-11.09,-36.91,-36.85,0,*6D
1488423829.04,64572,7.19,72408.5,-11.05,-36.43,-36.49,0,*6D
1488423830.31,64573,7.19,72406.5,-11.05,-36.49,-36.49,0,*66
1488423831.58,64574,7.19,72410.8,-11.05,-36.61,-36.61,0,*61
1488423832.85,64575,7.25,72426.5,-11.05,-36.25,-36.25,0,*60
1488423834.14,64576,7.19,72420.3,-11.03,-36.49,-36.49,0,*65
1488423835.43,64577,7.25,72416.0,-11.03,-36.61,-36.49,0,*6E
1488423836.72,64578,7.19,72418.8,-11.03,-36.49,-36.61,0,*61
1488423837.96,64579,7.19,72418.3,-11.01,-36.73,-36.79,0,*62
1488423839.18,64580,7.25,72410.5,-11.01,-37.15,-36.97,0,*65
1488423840.44,64581,7.25,72412.3,-11.01,-36.79,-36.79,0,*6F
1488423841.65,64582,7.25,72420.8,-11.01,-36.97,-36.97,0,*6C
1488423842.91,64583,7.19,72418.8,-10.99,-36.79,-36.73,0,*67
1488423844.18,64584,7.25,72426.3,-10.99,-36.55,-36.61,0,*6D
1488423845.42,64585,7.19,72416.3,-10.99,-36.97,-37.03,0,*67
1488423846.66,64586,7.25,72422.8,-10.99,-37.15,-37.15,0,*68
1488423847.93,64587,7.19,72416.3,-10.99,-37.21,-37.33,0,*6A
1488423849.2,64588,7.19,72414.0,-10.97,-37.39,-37.51,0,*66
1488423850.46,64589,7.25,72420.5,-10.97,-37.51,-37.51,0,*69
1488423851.76,64590,7.19,72424.3,-10.99,-37.51,-37.51,0,*6F
1488423853.02,64591,7.19,72420.5,-10.99,-37.57,-37.69,0,*63
1488423854.28,64592,7.19,72412.5,-10.97,-37.39,-37.39,0,*63
1488423855.57,64593,7.25,72418.3,-10.99,-37.51,-37.51,0,*6C
1488423856.86,64594,7.25,72422.8,-10.99,-37.39,-37.39,0,*6B
1488423858.16,64595,7.19,72416.8,-10.99,-37.39,-37.51,0,*64
1488423859.44,64596,7.19,72426.8,-10.99,-37.51,-37.69,0,*62
1488423860.67,64597,7.19,72418.3,-10.97,-37.75,-37.69,0,*6B
1488423861.91,64598,7.25,72422.3,-10.97,-37.57,-37.69,0,*64
1488423863.17,64599,7.19,72424.0,-10.97,-37.69,-37.69,0,*68
1488423864.43,64600,7.19,72422.0,-10.97,-37.69,-37.69,0,*6B
1488423865.66,64601,7.25,72426.3,-10.97,-37.57,-37.69,0,*67
1488423866.93,64602,7.19,72430.5,-10.99,-37.39,-37.57,0,*6F
1488423868.19,64603,7.19,72430.5,-10.99,-37.33,-37.51,0,*62
1488423869.45,64604,7.25,72418.0,-10.97,-37.69,-37.69,0,*6F
1488423870.69,64605,7.25,72424.5,-10.99,-37.57,-37.57,0,*60
1488423871.96,64606,7.25,72420.8,-10.99,-37.21,-37.33,0,*60
1488423873.2,64607,7.25,72422.3,-10.99,-37.03,-36.97,0,*6E
1488423874.43,64608,7.25,72416.5,-10.99,-37.03,-37.03,0,*6D
1488423875.7,64609,7.25,72408.8,-10.97,-36.79,-36.61,0,*6B
1488423876.98,64610,7.19,72418.8,-10.99,-36.79,-36.79,0,*64
1488423878.19,64611,7.19,72418.0,-10.97,-36.97,-36.85,0,*68
1488423879.43,64612,7.25,72416.3,-10.97,-36.73,-36.61,0,*6B
1488423880.72,64613,7.19,72416.3,-10.95,-36.49,-36.49,0,*6B
1488423881.96,64614,7.19,72410.0,-10.93,-36.49,-36.43,0,*60
1488423883.21,64615,7.19,72410.8,-10.95,-36.73,-36.55,0,*69
1488423884.45,64616,7.25,72412.3,-10.93,-36.49,-36.43,0,*62
1488423885.74,64617,7.25,72410.3,-10.95,-36.49,-36.37,0,*66
1488423886.95,64618,7.19,72418.0,-10.93,-36.43,-36.31,0,*63
1488423888.21,64619,7.25,72414.5,-10.93,-36.49,-36.61,0,*6D
1488423889.45,64620,7.19,72404.8,-10.91,-36.85,-36.85,0,*6F
1488423890.69,64621,7.25,72404.5,-10.91,-36.73,-36.85,0,*67
1488423891.96,64622,7.25,72400.0,-10.91,-37.09,-37.03,0,*67
1488423893.21,64623,7.19,72390.0,-10.89,-37.21,-37.03,0,*65
1488423894.45,64624,7.19,72394.0,-10.91,-37.27,-37.45,0,*6F
1488423895.74,64625,7.19,72400.8,-10.91,-37.39,-37.39,0,*6A
1488423897.01,64626,7.25,72408.3,-10.91,-37.63,-37.57,0,*6E
1488423898.27,64627,7.25,72410.3,-10.89,-37.69,-37.51,0,*6A
1488423899.57,64628,7.25,72416.0,-10.91,-37.63,-37.63,0,*67
1488423900.81,64629,7.25,72412.3,-10.91,-37.57,-37.57,0,*66
1488423902.05,64630,7.19,72408.5,-10.91,-37.75,-37.75,0,*6E
1488423903.35,64631,7.25,72400.3,-10.91,-37.63,-37.63,0,*6F
1488423904.58,64632,7.25,72408.8,-10.91,-37.45,-37.45,0,*6C
1488423905.85,64633,7.25,72410.0,-10.91,-37.63,-37.57,0,*6A
1488423907.12,64634,7.19,72406.0,-10.91,-37.63,-37.57,0,*6D
1488423908.39,64635,7.19,72406.3,-10.91,-37.63,-37.57,0,*6C
1488423909.68,64636,7.25,72394.3,-10.91,-37.63,-37.63,0,*68
1488423910.92,64637,7.25,72404.8,-10.91,-37.57,-37.45,0,*6A
1488423912.15,64638,7.25,72416.5,-10.93,-37.39,-37.45,0,*6F
1488423913.41,64639,7.25,72416.0,-10.93,-37.39,-37.39,0,*65
1488423914.62,64640,7.25,72416.8,-10.93,-37.57,-37.57,0,*6B
1488423915.89,64641,7.25,72408.3,-10.93,-37.63,-37.63,0,*6A
1488423917.1,64642,7.25,72406.3,-10.93,-37.45,-37.57,0,*6A
1488423918.33,64643,7.25,72406.5,-10.95,-37.45,-37.45,0,*6E
1488423919.57,64644,7.25,72396.0,-10.93,-37.45,-37.39,0,*64
1488423920.83,64645,7.19,72406.5,-10.95,-37.51,-37.45,0,*6D
1488423922.04,64646,7.25,72418.5,-10.93,-37.27,-37.45,0,*69
1488423923.27,64647,7.19,72414.3,-10.93,-37.39,-37.45,0,*67
1488423924.48,64648,7.19,72418.8,-10.93,-37.57,-37.57,0,*63
1488423925.72,64649,7.19,72412.8,-10.91,-37.57,-37.57,0,*60
1488423926.96,64650,7.19,72424.3,-10.93,-37.39,-37.57,0,*62
1488423928.17,64651,7.19,72418.0,-10.93,-37.57,-37.57,0,*6B
1488423929.4,64652,7.19,72420.3,-10.93,-37.45,-37.39,0,*63
1488423930.66,64653,7.25,72424.3,-10.93,-36.49,-36.49,0,*69
1488423931.93,64654,7.19,72424.0,-10.95,-36.79,-36.67,0,*67
1488423933.17,64655,7.19,72414.5,-10.93,-36.61,-36.43,0,*6F
1488423934.38,64656,7.25,72414.0,-10.93,-37.03,-36.85,0,*63
1488423935.62,64657,7.19,72416.8,-10.91,-36.85,-36.73,0,*66
1488423936.87,64658,7.25,72430.5,-10.91,-36.73,-36.73,0,*60
1488423938.11,64659,7.19,72422.0,-10.89,-36.91,-36.85,0,*6D
1488423939.34,64660,7.25,72412.8,-10.89,-36.67,-36.79,0,*6D
1488423940.59,64661,7.19,72426.3,-10.89,-36.79,-36.67,0,*6C
1488423941.83,64662,7.19,72420.8,-10.89,-36.61,-36.67,0,*66
1488423943.05,64663,7.19,72404.3,-10.89,-36.97,-36.97,0,*61
1488423944.29,64664,7.19,72404.8,-10.89,-37.15,-37.21,0,*61
1488423945.56,64665,7.19,72402.8,-10.89,-37.39,-37.51,0,*69
1488423946.82,64666,7.19,72402.0,-10.89,-37.51,-37.51,0,*64
1488423948.06,64667,7.25,72404.3,-10.87,-37.57,-37.57,0,*6B
1488423949.36,64668,7.19,72398.5,-10.87,-37.39,-37.39,0,*64
1488423950.62,64669,7.19,72392.0,-10.89,-37.51,-37.51,0,*6B
1488423951.86,64670,7.19,72390.0,-10.89,-37.69,-37.57,0,*6E
1488423953.1,64671,7.25,72392.5,-10.89,-37.69,-37.57,0,*6F
1488423954.37,64672,7.19,72398.8,-10.89,-37.39,-37.51,0,*6F
1488423955.61,64673,7.25,72416.0,-10.89,-37.57,-37.51,0,*66
1488423956.88,64674,7.25,72418.0,-10.89,-37.69,-37.51,0,*6C
1488423958.15,64675,7.19,72418.0,-10.89,-37.39,-37.21,0,*6F
1488423959.39,64676,7.19,72416.8,-10.89,-37.57,-37.51,0,*63
1488423960.64,64677,7.25,72422.0,-10.89,-37.81,-37.75,0,*6F
1488423961.88,64678,7.19,72420.3,-10.89,-37.51,-37.57,0,*6D
1488423963.14,64679,7.19,72420.5,-10.89,-37.51,-37.39,0,*64
1488423964.41,64680,7.25,72416.5,-10.91,-37.75,-37.63,0,*62
1488423965.68,64681,7.19,72414.0,-10.89,-37.51,-37.51,0,*6D
1488423966.92,64682,7.25,72418.5,-10.89,-37.75,-37.69,0,*63
1488423968.19,64683,7.19,72416.0,-10.89,-37.81,-37.81,0,*6F
1488423969.44,64684,7.19,72412.8,-10.89,-37.81,-37.75,0,*63
1488423970.74,64685,7.25,72410.0,-10.91,-37.81,-37.63,0,*6C
1488423972.01,64686,7.19,72414.3,-10.91,-37.75,-37.63,0,*64
1488423973.23,64687,7.19,72416.8,-10.89,-37.75,-37.57,0,*6B
1488423974.52,64688,7.19,72418.5,-10.91,-37.63,-37.63,0,*6D
1488423975.76,64689,7.19,72418.5,-10.89,-37.75,-37.69,0,*68
1488423977.0,64690,7.19,72418.8,-10.91,-37.75,-37.75,0,*64
1488423978.27,64691,7.19,72418.3,-10.91,-37.81,-37.75,0,*6E
1488423979.55,64692,7.25,72420.8,-10.91,-37.81,-37.75,0,*6D
1488423980.85,64693,7.25,72418.0,-10.91,-37.81,-37.81,0,*67
1488423982.15,64694,7.19,72412.5,-10.91,-37.99,-37.81,0,*69
1488423983.44,64695,7.25,72406.3,-10.91,-37.99,-37.81,0,*68
1488423984.69,64696,7.19,72400.3,-10.91,-37.87,-37.75,0,*6F
1488423985.93,64697,7.19,72410.8,-10.93,-37.75,-37.63,0,*66
1488423987.23,64698,7.19,72412.3,-10.91,-37.81,-37.81,0,*6C
1488423988.47,64699,7.19,72416.5,-10.93,-37.99,-37.87,0,*60
1488423989.75,64700,7.19,72420.3,-10.93,-37.81,-37.63,0,*62
1488423990.99,64701,7.25,72418.8,-10.93,-37.81,-37.75,0,*64
1488423992.21,64702,7.19,72418.3,-10.93,-37.87,-37.75,0,*61
1488423993.48,64703,7.19,72416.3,-10.93,-37.81,-37.63,0,*61
1488423994.76,64704,7.25,72414.8,-10.95,-37.87,-37.81,0,*6A
1488423995.97,64705,7.25,72410.5,-10.93,-37.87,-37.75,0,*66
1488423997.21,64706,7.25,72406.5,-10.91,-37.57,-37.45,0,*69
1488423998.42,64707,7.19,72412.0,-10.93,-37.57,-37.57,0,*69
1488423999.66,64708,7.19,72408.5,-10.93,-37.75,-37.63,0,*61
1488424000.96,64709,7.19,72408.0,-10.91,-37.63,-37.63,0,*65
1488424002.16,64710,7.19,72386.8,-10.93,-37.57,-37.45,0,*6C
1488424003.37,64711,7.19,72392.0,-10.93,-37.75,-37.57,0,*6E
1488424004.61,64712,7.19,72404.0,-10.91,-37.57,-37.57,0,*6F
1488424005.85,64713,7.19,72410.0,-10.91,-37.57,-37.57,0,*6E
1488424007.12,64714,7.19,72410.5,-10.91,-37.63,-37.57,0,*6E
1488424008.33,64715,7.19,72394.0,-10.93,-37.75,-37.57,0,*6A
1488424009.6,64716,7.19,72398.8,-10.91,-37.45,-37.39,0,*60
1488424010.84,64717,7.25,72394.8,-10.93,-37.81,-37.75,0,*63
1488424012.14,64718,7.19,72394.0,-10.91,-37.63,-37.63,0,*65
1488424013.44,64719,7.25,72396.3,-10.91,-37.63,-37.63,0,*64
1488424014.68,64720,7.25,72396.8,-10.91,-37.75,-37.75,0,*6E
1488424015.97,64721,7.19,72400.5,-10.91,-37.63,-37.63,0,*6F
1488424017.24,64722,7.25,72400.5,-10.93,-37.63,-37.63,0,*6E
1488424018.44,64723,7.19,72404.0,-10.93,-37.57,-37.45,0,*6C
1488424019.68,64724,7.25,72402.3,-10.93,-37.57,-37.39,0,*60
1488424020.92,64725,7.19,72402.5,-10.93,-37.27,-37.21,0,*6F
1488424022.21,64726,7.19,72402.5,-10.91,-37.39,-37.39,0,*68
1488424023.48,64727,7.25,72402.8,-10.89,-37.51,-37.51,0,*60
1488424024.72,64728,7.19,72404.5,-10.91,-37.45,-37.45,0,*66
1488424025.96,64729,7.19,72410.5,-10.89,-37.57,-37.39,0,*66
1488424027.2,64730,7.19,72414.3,-10.91,-37.57,-37.57,0,*6F
1488424028.46,64731,7.19,72412.0,-10.91,-37.63,-37.57,0,*69
1488424029.7,64732,7.19,72408.5,-10.91,-37.57,-37.45,0,*6E
1488424030.93,64733,7.19,72410.5,-10.91,-37.57,-37.45,0,*6F
1488424032.17,64734,7.19,72408.3,-10.91,-37.45,-37.45,0,*6B
1488424033.44,64735,7.25,72416.0,-10.91,-37.63,-37.57,0,*6D
1488424034.68,64736,7.19,72414.5,-10.91,-37.75,-37.57,0,*69
1488424035.92,64737,7.19,72402.0,-10.91,-37.75,-37.75,0,*68
1488424037.19,64738,7.25,72418.8,-10.91,-37.75,-37.63,0,*60
1488424038.39,64739,7.19,72408.0,-10.93,-37.57,-37.45,0,*67
1488424039.6,64740,7.19,72408.0,-10.93,-37.57,-37.45,0,*69
1488424040.8,64741,7.19,72394.8,-10.93,-37.57,-37.45,0,*68
1488424042.04,64742,7.25,72388.5,-10.93,-37.45,-37.39,0,*63
1488424043.3,64743,7.25,72400.3,-10.91,-37.39,-37.27,0,*64
1488424044.57,64744,7.19,72400.0,-10.91,-37.27,-37.09,0,*60
1488424045.86,64745,7.19,72394.5,-10.91,-37.39,-37.39,0,*6D
1488424047.13,64746,7.19,72404.3,-10.93,-37.39,-37.39,0,*6C
1488424048.36,64747,7.19,72388.5,-10.93,-37.39,-37.27,0,*62
1488424049.6,64748,7.19,72398.5,-10.91,-37.27,-37.27,0,*60
1488424050.9,64749,7.19,72398.3,-10.91,-37.21,-37.09,0,*6B
1488424052.19,64750,7.19,72400.0,-10.91,-37.09,-37.09,0,*69
1488424053.46,64751,7.19,72406.5,-10.91,-36.91,-36.73,0,*64
1488424054.71,64752,7.19,72414.5,-10.91,-36.85,-36.67,0,*67
1488424055.92,64753,7.19,72410.0,-10.89,-36.97,-36.85,0,*60
1488424057.16,64754,7.19,72410.3,-10.89,-36.85,-36.79,0,*67
1488424058.42,64755,7.19,72412.8,-10.89,-36.79,-36.61,0,*6C
1488424059.66,64756,7.19,72418.8,-10.89,-36.85,-36.79,0,*65
1488424060.88,64757,7.25,72408.8,-10.89,-36.97,-36.97,0,*67
1488424062.1,64758,7.19,72408.8,-10.89,-36.97,-37.15,0,*63
1488424063.31,64759,7.19,72400.5,-10.89,-37.03,-36.85,0,*66
1488424064.53,64760,7.19,72408.5,-10.89,-36.97,-36.97,0,*63
1488424065.75,64761,7.19,72414.0,-10.89,-36.67,-36.67,0,*62
1488424066.99,64762,7.19,72410.5,-10.87,-36.97,-37.15,0,*64
1488424068.24,64763,7.19,72408.0,-10.87,-37.15,-37.15,0,*6E
1488424069.47,64764,7.19,72400.3,-10.83,-37.27,-37.27,0,*6D
1488424070.77,64765,7.19,72396.0,-10.87,-37.51,-37.51,0,*68
1488424072.06,64766,7.19,72402.0,-10.87,-37.39,-37.51,0,*65
1488424073.3,64767,7.19,72396.0,-10.83,-37.27,-37.45,0,*6A
1488424074.59,64768,7.19,72400.5,-10.87,-37.39,-37.51,0,*6B
1488424075.89,64769,7.19,72392.5,-10.87,-37.51,-37.51,0,*64
1488424077.15,64770,7.19,72396.5,-10.87,-37.57,-37.51,0,*6A
1488424078.39,64771,7.19,72398.0,-10.87,-37.57,-37.57,0,*6D
1488424079.63,64772,7.25,72402.3,-10.87,-37.57,-37.57,0,*6E
1488424080.87,64773,7.19,72396.8,-10.87,-37.57,-37.57,0,*6F
1488424082.14,64774,7.19,72404.8,-10.87,-37.57,-37.51,0,*6E
1488424083.35,64775,7.19,72410.8,-10.89,-37.33,-37.33,0,*67
1488424084.59,64776,7.19,72408.3,-10.89,-37.57,-37.51,0,*62
1488424085.83,64777,7.25,72408.5,-10.89,-37.57,-37.69,0,*68
1488424087.07,64778,7.19,72402.3,-10.89,-37.69,-37.57,0,*67
1488424088.31,64779,7.19,72408.3,-10.89,-37.69,-37.57,0,*66
1488424089.52,64780,7.19,72410.5,-10.89,-37.57,-37.57,0,*6D
1488424090.79,64781,7.19,72406.0,-10.89,-37.39,-37.51,0,*62
1488424092.06,64782,7.19,72400.8,-10.89,-37.51,-37.51,0,*6F
1488424093.32,64783,7.25,72418.3,-10.89,-37.39,-37.39,0,*6E
1488424094.6,64784,7.25,72428.3,-10.89,-37.21,-37.21,0,*69
1488424095.86,64785,7.25,72408.3,-10.89,-36.61,-36.61,0,*68
1488424097.1,64786,7.25,72410.5,-10.87,-37.15,-37.15,0,*65
1488424098.35,64787,7.19,72398.5,-10.87,-36.55,-36.43,0,*63
1488424099.59,64788,7.19,72404.5,-10.87,-36.43,-36.43,0,*6B
1488424100.84,64789,7.19,72398.3,-10.83,-36.55,-36.55,0,*6E